Torna al catalogo

STARLINK-5009

AttivoComunicazioniVLEO
NORAD 53928·PAYLOAD·🇺🇸 United States

Lanciato Sep 24, 2022 da Cape Canaveral Space Force Station

Loading…

Prossimi Passaggi (prossime 24 ore)

TLE

AggiornatoSource: CelesTrak SupGP

Epoca: Sep 14, 2026, 13:45 UTC

1 53928C 22119AU  26257.57340278  .00025997  00000+0  16313-2 0  2574
2 53928  53.1591 175.4618 0001253  96.3625 191.3820 15.08798392    14

Traccia STARLINK-5009 in tempo reale con AllMySat

Download on the App Store